TimeCDT,TemperatureF,Dew PointF,Humidity,Sea Level PressureIn,VisibilityMPH,Wind Direction,Wind SpeedMPH,Gust SpeedMPH,PrecipitationIn,Events,Conditions,WindDirDegrees,DateUTC
12:15 AM,33.8,26.6,75,29.86,10.0,North,26.5,40.3,N/A,,Overcast,360,2014-04-14 05:15:00
12:35 AM,33.8,26.6,75,29.87,10.0,North,28.8,38.0,N/A,,Overcast,360,2014-04-14 05:35:00
12:55 AM,32.0,26.6,80,29.87,10.0,North,25.3,42.6,N/A,,Overcast,350,2014-04-14 05:55:00
1:15 AM,32.0,26.6,80,29.88,10.0,North,28.8,-,N/A,,Overcast,350,2014-04-14 06:15:00
1:35 AM,32.0,26.6,80,29.89,10.0,North,27.6,35.7,N/A,,Overcast,350,2014-04-14 06:35:00
1:55 AM,32.0,26.6,80,29.89,10.0,North,25.3,39.1,N/A,,Overcast,350,2014-04-14 06:55:00
2:15 AM,32.0,24.8,75,29.89,10.0,North,27.6,42.6,N/A,,Mostly Cloudy,350,2014-04-14 07:15:00
2:35 AM,32.0,24.8,75,29.89,10.0,North,28.8,40.3,N/A,,Overcast,350,2014-04-14 07:35:00
2:55 AM,30.2,24.8,80,29.90,10.0,North,21.9,39.1,N/A,,Overcast,360,2014-04-14 07:55:00
3:15 AM,30.2,24.8,80,29.89,10.0,North,27.6,39.1,N/A,,Overcast,350,2014-04-14 08:15:00
3:35 AM,30.2,24.8,80,29.89,10.0,North,24.2,34.5,N/A,,Overcast,350,2014-04-14 08:35:00
3:55 AM,30.2,24.8,80,29.90,10.0,North,26.5,39.1,N/A,,Overcast,350,2014-04-14 08:55:00
4:15 AM,30.2,23.0,75,29.90,10.0,North,26.5,39.1,N/A,,Overcast,350,2014-04-14 09:15:00
4:35 AM,30.2,23.0,75,29.90,10.0,North,21.9,31.1,N/A,,Overcast,350,2014-04-14 09:35:00
4:55 AM,28.4,23.0,80,29.92,10.0,NNW,23.0,32.2,N/A,,Overcast,340,2014-04-14 09:55:00
5:15 AM,28.4,23.0,80,29.94,10.0,North,23.0,33.4,N/A,,Overcast,350,2014-04-14 10:15:00
5:35 AM,28.4,21.2,74,29.94,10.0,North,25.3,33.4,N/A,,Overcast,350,2014-04-14 10:35:00
5:55 AM,28.4,21.2,74,29.96,10.0,NNW,23.0,34.5,N/A,,Mostly Cloudy,340,2014-04-14 10:55:00
6:15 AM,28.4,21.2,74,29.96,10.0,North,20.7,31.1,N/A,,Mostly Cloudy,350,2014-04-14 11:15:00
6:35 AM,26.6,21.2,80,29.97,10.0,North,25.3,34.5,N/A,,Scattered Clouds,350,2014-04-14 11:35:00
6:55 AM,26.6,21.2,80,29.99,10.0,North,19.6,32.2,N/A,,Mostly Cloudy,350,2014-04-14 11:55:00
7:15 AM,26.6,21.2,80,30.00,10.0,North,21.9,32.2,N/A,,Mostly Cloudy,350,2014-04-14 12:15:00
7:35 AM,26.6,21.2,80,30.02,10.0,North,23.0,31.1,N/A,,Partly Cloudy,350,2014-04-14 12:35:00
7:55 AM,26.6,19.4,74,30.03,10.0,NNW,23.0,32.2,N/A,,Clear,340,2014-04-14 12:55:00
8:15 AM,26.6,19.4,74,30.03,10.0,NNW,20.7,32.2,N/A,,Partly Cloudy,340,2014-04-14 13:15:00
8:35 AM,26.6,19.4,74,30.04,10.0,North,21.9,31.1,N/A,,Clear,350,2014-04-14 13:35:00
8:55 AM,26.6,19.4,74,30.04,10.0,North,25.3,34.5,N/A,,Clear,350,2014-04-14 13:55:00
9:15 AM,28.4,19.4,69,30.05,10.0,North,19.6,29.9,N/A,,Clear,350,2014-04-14 14:15:00
9:35 AM,28.4,19.4,69,30.06,10.0,North,19.6,29.9,N/A,,Clear,350,2014-04-14 14:35:00
9:55 AM,28.4,19.4,69,30.07,10.0,North,20.7,28.8,N/A,,Clear,350,2014-04-14 14:55:00
10:15 AM,28.4,19.4,69,30.07,10.0,NNW,21.9,29.9,N/A,,Clear,340,2014-04-14 15:15:00
10:35 AM,28.4,19.4,69,30.08,10.0,North,20.7,28.8,N/A,,Clear,350,2014-04-14 15:35:00
10:55 AM,28.4,17.6,64,30.09,10.0,NNW,19.6,31.1,N/A,,Clear,340,2014-04-14 15:55:00
11:15 AM,30.2,17.6,60,30.09,10.0,North,19.6,26.5,N/A,,Clear,350,2014-04-14 16:15:00
11:35 AM,30.2,19.4,64,30.09,10.0,NNW,19.6,27.6,N/A,,Clear,340,2014-04-14 16:35:00
11:55 AM,30.2,19.4,64,30.10,10.0,NNW,16.1,28.8,N/A,,Clear,340,2014-04-14 16:55:00
12:35 PM,32.0,17.6,55,30.10,10.0,North,18.4,28.8,N/A,,Clear,360,2014-04-14 17:35:00
12:55 PM,32.0,17.6,55,30.10,10.0,North,19.6,27.6,N/A,,Clear,350,2014-04-14 17:55:00
1:15 PM,33.8,17.6,52,30.10,10.0,North,18.4,28.8,N/A,,Clear,360,2014-04-14 18:15:00
1:35 PM,33.8,14.0,44,30.10,10.0,North,21.9,34.5,N/A,,Clear,350,2014-04-14 18:35:00
1:55 PM,33.8,15.8,48,30.09,10.0,NNW,16.1,27.6,N/A,,Clear,340,2014-04-14 18:55:00
2:15 PM,35.6,15.8,44,30.09,10.0,North,19.6,26.5,N/A,,Clear,350,2014-04-14 19:15:00
2:35 PM,35.6,17.6,48,30.09,10.0,NNW,19.6,29.9,N/A,,Scattered Clouds,330,2014-04-14 19:35:00
2:55 PM,35.6,15.8,44,30.09,10.0,North,17.3,24.2,N/A,,Mostly Cloudy,350,2014-04-14 19:55:00
3:15 PM,35.6,15.8,44,30.08,10.0,NNW,18.4,27.6,N/A,,Mostly Cloudy,330,2014-04-14 20:15:00
3:35 PM,35.6,15.8,44,30.07,10.0,NNW,18.4,27.6,N/A,,Mostly Cloudy,340,2014-04-14 20:35:00
3:55 PM,37.4,15.8,41,30.07,10.0,NNW,13.8,25.3,N/A,,Mostly Cloudy,340,2014-04-14 20:55:00
4:15 PM,35.6,15.8,44,30.07,10.0,NNW,20.7,28.8,N/A,,Scattered Clouds,340,2014-04-14 21:15:00
4:35 PM,35.6,14.0,41,30.07,10.0,NNW,20.7,31.1,N/A,,Partly Cloudy,330,2014-04-14 21:35:00
4:55 PM,35.6,14.0,41,30.07,10.0,North,17.3,29.9,N/A,,Mostly Cloudy,350,2014-04-14 21:55:00
5:15 PM,35.6,14.0,41,30.07,10.0,North,18.4,28.8,N/A,,Mostly Cloudy,350,2014-04-14 22:15:00
5:35 PM,35.6,15.8,44,30.08,10.0,NNW,18.4,27.6,N/A,,Overcast,340,2014-04-14 22:35:00
5:55 PM,33.8,14.0,44,30.09,10.0,NNW,19.6,27.6,N/A,,Mostly Cloudy,340,2014-04-14 22:55:00
6:15 PM,33.8,14.0,44,30.09,10.0,NNW,19.6,28.8,N/A,,Scattered Clouds,340,2014-04-14 23:15:00
6:35 PM,33.8,14.0,44,30.10,10.0,NNW,16.1,26.5,N/A,,Partly Cloudy,340,2014-04-14 23:35:00
6:55 PM,33.8,14.0,44,30.10,10.0,NNW,21.9,27.6,N/A,,Partly Cloudy,330,2014-04-14 23:55:00
7:15 PM,33.8,14.0,44,30.11,10.0,NNW,13.8,23.0,N/A,,Clear,340,2014-04-15 00:15:00
7:35 PM,32.0,14.0,48,30.11,10.0,North,15.0,23.0,N/A,,Clear,350,2014-04-15 00:35:00
7:55 PM,32.0,15.8,51,30.11,10.0,NNW,13.8,19.6,N/A,,Clear,340,2014-04-15 00:55:00
8:15 PM,32.0,15.8,51,30.11,10.0,NNW,10.4,-,N/A,,Clear,340,2014-04-15 01:15:00
8:35 PM,30.2,17.6,60,30.12,10.0,North,8.1,-,N/A,,Clear,350,2014-04-15 01:35:00
8:55 PM,30.2,17.6,60,30.12,10.0,NNW,6.9,-,N/A,,Clear,340,2014-04-15 01:55:00
9:15 PM,30.2,17.6,60,30.13,10.0,NNW,8.1,-,N/A,,Clear,340,2014-04-15 02:15:00
9:35 PM,28.4,17.6,64,30.13,10.0,NNW,6.9,-,N/A,,Clear,340,2014-04-15 02:35:00
9:55 PM,28.4,17.6,64,30.13,10.0,NNW,5.8,-,N/A,,Clear,340,2014-04-15 02:55:00
10:15 PM,28.4,19.4,69,30.14,10.0,NNW,6.9,-,N/A,,Partly Cloudy,330,2014-04-15 03:15:00
10:35 PM,28.4,17.6,64,30.13,10.0,NNW,9.2,-,N/A,,Mostly Cloudy,330,2014-04-15 03:35:00
11:15 PM,28.4,19.4,69,30.14,10.0,NW,6.9,-,N/A,,Scattered Clouds,320,2014-04-15 04:15:00
11:35 PM,26.6,19.4,74,30.14,10.0,NW,8.1,-,N/A,,Clear,310,2014-04-15 04:35:00